Miscellaneous Local Product
Issued by NWS North Platte, NE

Home | Current Version | Previous Version | Text Only | Print | Product List | Glossary On
Versions: 1 2 3 4 5 6 7 8 9 10 11 12 13 14 15 16 17 18 19 20 21 22 23 24 25 26 27 28 29 30 31 32 33 34 35 36 37 38 39 40 41 42 43 44 45 46 47 48 49 50
986
AXUS43 KLBF 190010
MISLBF


WESTERN AND NORTH CENTRAL NEBRASKA HOURLY WEATHER ROUNDUP
NATIONAL WEATHER SERVICE NORTH PLATTE NE
700 PM CDT WED APR 18 2018

NOTE: "FAIR" INDICATES FEW OR NO CLOUDS BELOW 12,000 FEET WITH NO
SIGNIFICANT WEATHER AND/OR OBSTRUCTIONS TO VISIBILITY.

NOTE: STATIONS NOT REPORTING VARIABLES SUCH AS SKY/WEATHER OR
PRESSURE ARE PROVIDED BY RAWS AND APRS NETWORKS AND ARE NOT UNDER
NATIONAL WEATHER SERVICE QUALITY CONTROL.

...OBSERVATIONS IN AND NEAR THE EASTERN PANHANDLE OF NEBRASKA...

CITY           SKY/WX    TMP DP  RH WIND       PRES   REMARKS
PINE RIDGE     SUNNY     55  25  31 N17G28    30.19R
GORDON         FAIR      53  26  34 N16G26    30.18S
CHADRON        CLOUDY    52  27  38 NE9       30.19R
ALLIANCE       SUNNY     54  23  30 N20       30.18R
SIDNEY         SUNNY     54  20  26 N17G24    30.22R
$$

...OBSERVATIONS IN NORTHERN NEBRASKA AND FAR SOUTHERN SOUTH DAKOTA...

CITY           SKY/WX    TMP DP  RH WIND       PRES   REMARKS
WINNER         CLOUDY    38  32  79 W8        30.22R WCI  32
VALENTINE      SUNNY     45  33  63 N12       30.21R
AINSWORTH      SUNNY     40  33  75 N12       30.21S WCI  34
O`NEILL        PTSUNNY   40  35  83 NW16      30.20R WCI  31
THEDFORD       SUNNY     48  34  58 N12       30.20R
BROKEN BOW     SUNNY     46  32  58 N14       30.19S
ORD            CLOUDY    42  32  67 NW17G24   30.20R
ALBION         CLOUDY    41  32  70 NW14G20   30.19S
VALENTINE NWR    N/A     45  32  59 N10G23      N/A
HALSEY           N/A     48  31  52 N9G20       N/A
BUTTE            N/A     35  33  91 NW13        N/A  WCI  26
CHAMBERS         N/A     39  33  78 NW5         N/A
EWING            N/A     38  34  85 NW10        N/A  WCI  31
$$

...OBSERVATIONS IN SOUTHWEST NEBRASKA AND FAR NORTHEAST COLORADO...

CITY           SKY/WX    TMP DP  RH WIND       PRES   REMARKS
WRAY           FAIR      57  18  21 NW12G22   30.22S
HOLYOKE        FAIR      59  21  23 N17G24    30.21R
IMPERIAL       MOSUNNY   58  24  27 NW17G26   30.19R
OGALLALA       FAIR      57  27  32 N12G17    30.19R
NORTH PLATTE   SUNNY     54  32  43 NE16G26   30.18R
MCCOOK         PTSUNNY   58  28  32 N23G30    30.18R
LEXINGTON      SUNNY     51  33  49 N18       30.20R
STAPLETON        N/A     48  34  59 MISG        N/A
GOTHENBURG       N/A     51  31  45 N15         N/A
CALLAWAY         N/A     50  36  59 N12         N/A
$$

...OBSERVATIONS IN CENTRAL LINCOLN COUNTY AREA...

CITY           SKY/WX    TMP DP  RH WIND       PRES   REMARKS
N.P. AIRPORT   SUNNY     54  32  43 NE16G26   30.18R
N.P. DOWNTOWN    N/A     53  35  50 NE8         N/A
N.P. SOUTHEAST   N/A     53  33  47 N7G14       N/A
N.P. HILLCREST   N/A     52  34  51 NE15        N/A
$$

...OBSERVATIONS ACROSS THE ROCKIES AND WESTERN HIGH PLAINS...

CITY           SKY/WX    TMP DP  RH WIND       PRES   REMARKS
RAPID CITY     PTSUNNY   53  23  31 NW18G28   30.19S
SCOTTSBLUFF    SUNNY     55  22  27 NW14      30.21R
CHEYENNE       SUNNY     50   8  18 N12G17    30.21R
DENVER         MOSUNNY   55  11  17 E9        30.20S
BERTHOUD PASS  FAIR      21  10  63 NE8G24    30.29F WCI  12
MONARCH PASS   SUNNY     36  -2  20 SE8       30.40S WCI  29
ASPEN          MOSUNNY   52   6  15 VRB6      30.12F
STEAMBOAT      FAIR      49  11  22 CALM      30.16F
LARAMIE        SUNNY     45   9  23 N8        30.19F
CASPER         SUNNY     49  19  30 E9        30.19F
$$

...OBSERVATIONS ACROSS THE NORTHERN PLAINS...

CITY           SKY/WX    TMP DP  RH WIND       PRES   REMARKS
BISMARCK       MOSUNNY   49  29  46 NE12      30.23R
FARGO          FAIR      50  31  48 NE9       30.15R
PIERRE         MOSUNNY   48  36  63 N12       30.20R
SIOUX FALLS    CLOUDY    35  30  82 N6        30.15R WCI  30
$$

...OBSERVATIONS ACROSS THE CENTRAL AND SOUTHERN PLAINS...

CITY           SKY/WX    TMP DP  RH WIND       PRES   REMARKS
OMAHA          LGT RAIN  39  31  72 NW13      30.16R WCI  31
GRAND ISLAND   CLOUDY    44  30  57 N17       30.21R
KANSAS CITY    CLOUDY    44  28  53 NW16G28   30.12R
WICHITA        MOSUNNY   58  27  30 N22G31    30.17R
DODGE CITY     SUNNY     63  23  21 N16G26    30.18R
OKLAHOMA CITY  MOSUNNY   68  23  18 N16G28    30.13R
DALLAS         MOSUNNY   74  28  18 N15       30.09R
AMARILLO       SUNNY     64   6  10 N13G22    30.23S
$$




USA.gov is the U.S. government's official web portal to all federal, state and local government web resources and services.